KC7GVU Weather Reports


time (UTC)temp
F
wind
direction
speed
knots
gust
knots
rain 1hr
in
rain 24hr
in
rain mn
in
humidity
%
barometer
mb
20260504233324 71 0 0.0 0.0 0.00 0.00 0.00 52 1009.0
20260504232824 71 45 0.0 0.0 0.00 0.00 0.00 52 1009.0
20260504232324 71 45 0.0 0.0 0.00 0.00 0.00 52 1009.0
20260504231824 71 202 0.0 0.0 0.00 0.00 0.00 52 1009.0
20260504231324 71 45 0.0 0.0 0.00 0.00 0.00 52 1009.0
20260504230822 71 45 0.0 0.0 0.00 0.00 0.00 51 1009.0
20260504230323 71 45 0.0 0.0 0.00 0.00 0.00 52 1009.0
20260504225822 71 338 0.0 0.0 0.00 0.00 0.00 51 1009.0
20260504224823 71 0 0.0 0.0 0.00 0.00 0.00 51 1009.0
20260504224323 71 45 0.0 0.0 0.00 0.00 0.00 50 1009.0
20260504223823 71 338 0.0 0.0 0.00 0.00 0.00 50 1009.0
20260504223323 71 0 0.0 0.0 0.00 0.00 0.00 50 1009.0
20260504222823 71 45 0.0 0.0 0.00 0.00 0.00 52 1009.0
20260504222323 72 0 0.0 0.0 0.00 0.00 0.00 51 1009.0
20260504221823 72 338 0.0 0.0 0.00 0.00 0.00 50 1009.0
20260504221322 71 22 0.0 0.0 0.00 0.00 0.00 52 1009.0
20260504220822 71 45 0.0 0.0 0.00 0.00 0.00 52 1009.0
20260504220322 71 22 0.0 0.0 0.00 0.00 0.00 52 1009.0
20260504214824 70 0 0.0 0.0 0.00 0.00 0.00 53 1009.0
20260504214323 70 22 0.0 0.0 0.00 0.00 0.00 52 1010.0
20260504213823 70 45 0.0 0.0 0.00 0.00 0.00 52 1010.0
20260504212823 71 45 0.0 0.0 0.00 0.00 0.00 50 1009.0
20260504212323 71 0 0.0 0.0 0.00 0.00 0.00 50 1010.0
20260504211823 71 22 0.0 0.0 0.00 0.00 0.00 50 1010.0
20260504211323 71 22 0.0 0.0 0.00 0.00 0.00 50 1010.0
20260504210824 71 22 0.0 0.0 0.00 0.00 0.00 49 1010.0
20260504210324 71 22 0.0 0.0 0.00 0.00 0.00 50 1010.0
20260504204824 70 0 0.0 0.0 0.00 0.00 0.00 49 1009.0
20260504203824 72 45 0.0 0.0 0.00 0.00 0.00 49 1010.0
20260504203323 72 45 0.0 0.0 0.00 0.00 0.00 49 1010.0
20260504202823 72 45 0.0 0.0 0.00 0.00 0.00 49 1010.0
20260504202322 73 22 0.0 0.0 0.00 0.00 0.00 48 1010.0
20260504201822 73 22 0.0 0.0 0.00 0.00 0.00 48 1009.0
20260504201322 73 45 0.0 0.0 0.00 0.00 0.00 48 1009.0
20260504200822 74 45 0.0 0.0 0.00 0.00 0.00 48 1009.0
20260504200322 74 22 0.0 0.0 0.00 0.00 0.00 47 1009.0
20260504195822 74 45 0.0 0.0 0.00 0.00 0.00 47 1009.0
20260504195324 74 45 0.0 0.0 0.00 0.00 0.00 47 1009.0
20260504194823 75 22 0.0 0.0 0.00 0.00 0.00 46 1009.0
20260504194323 75 22 0.0 0.0 0.00 0.00 0.00 45 1009.0
20260504193823 76 45 0.0 0.0 0.00 0.00 0.00 45 1009.0
20260504193322 76 45 0.0 0.0 0.00 0.00 0.00 45 1010.0
20260504192822 76 45 0.0 0.0 0.00 0.00 0.00 43 1009.0
20260504192322 76 45 0.0 0.0 0.00 0.00 0.00 43 1009.0
20260504191822 76 22 0.0 0.0 0.00 0.00 0.00 43 1009.0
20260504191323 76 45 0.0 0.0 0.00 0.00 0.00 43 1010.0
20260504190823 76 45 0.0 0.0 0.00 0.00 0.00 44 1009.0
20260504190322 76 45 0.0 0.0 0.00 0.00 0.00 44 1009.0
20260504185824 76 22 0.0 0.0 0.00 0.00 0.00 45 1010.0
20260504184823 76 338 0.0 0.0 0.00 0.00 0.00 45 1009.0
20260504184323 75 45 0.0 0.0 0.00 0.00 0.00 45 1010.0
20260504183824 75 45 0.0 0.0 0.00 0.00 0.00 45 1010.0
20260504183323 75 45 0.0 0.0 0.00 0.00 0.00 46 1010.0
20260504182822 75 22 0.0 0.0 0.00 0.00 0.00 46 1010.0
20260504182322 74 0 0.0 0.0 0.00 0.00 0.00 46 1010.0
20260504181822 74 22 0.0 0.0 0.00 0.00 0.00 46 1010.0
20260504181322 74 45 0.0 0.0 0.00 0.00 0.00 46 1010.0
20260504180823 74 338 0.0 0.0 0.00 0.00 0.00 46 1010.0
20260504180324 74 22 0.0 0.0 0.00 0.00 0.00 45 1010.0
20260504175823 73 0 0.0 0.0 0.00 0.00 0.00 46 1010.0
20260504175323 73 45 0.0 0.0 0.00 0.00 0.00 46 1010.0
20260504174823 73 45 0.0 0.0 0.00 0.00 0.00 46 1010.0
20260504174323 73 45 0.0 0.0 0.00 0.00 0.00 46 1010.0
20260504173823 74 22 0.0 0.0 0.00 0.00 0.00 45 1010.0
20260504173324 73 22 0.0 0.0 0.00 0.00 0.00 46 1010.0
20260504172822 73 45 0.0 0.0 0.00 0.00 0.00 45 1010.0
20260504172322 73 45 0.0 0.0 0.00 0.00 0.00 45 1010.0
20260504171823 73 45 0.0 0.0 0.00 0.00 0.00 45 1010.0
20260504170823 73 22 0.0 0.0 0.00 0.00 0.00 46 1010.0
20260504170323 73 45 0.0 0.0 0.00 0.00 0.00 46 1010.0
20260504160322 72 22 0.0 0.0 0.00 0.00 0.00 45 1010.0
20260504150823 67 225 0.0 0.0 0.00 0.00 0.00 49 1009.0
20260504150323 66 225 0.0 0.0 0.00 0.00 0.00 50 1009.0
20260504141324 60 225 0.0 0.0 0.00 0.00 0.00 54 1009.0
20260504140823 59 225 0.0 0.0 0.00 0.00 0.00 55 1009.0
20260504140322 58 225 0.0 0.0 0.00 0.00 0.00 56 1009.0
20260504130323 51 202 0.0 0.0 0.00 0.00 0.00 62 1009.0
20260504110323 52 202 0.0 0.0 0.00 0.00 0.00 58 1008.0
20260504100323 58 158 0.0 0.0 0.00 0.00 0.00 49 1008.0
20260504081823 61 202 0.0 0.0 0.00 0.00 0.00 48 1008.0
20260504081323 61 225 0.0 0.0 0.00 0.00 0.00 48 1008.0
20260504080823 61 202 0.0 0.0 0.00 0.00 0.00 48 1008.0
20260504080322 61 202 0.0 0.0 0.00 0.00 0.00 48 1008.0
20260504070323 61 225 0.0 0.0 0.00 0.00 0.00 50 1009.0
20260504045823 63 225 0.0 0.0 0.00 0.00 0.00 50 1009.0
20260504044823 63 202 0.0 0.0 0.00 0.00 0.00 49 1009.0
20260504044323 64 225 0.0 0.0 0.00 0.00 0.00 49 1009.0
20260504043824 64 225 0.0 0.0 0.00 0.00 0.00 49 1009.0
20260504043324 64 225 0.0 0.0 0.00 0.00 0.00 49 1009.0
20260504042824 64 202 0.0 0.0 0.00 0.00 0.00 49 1009.0
20260504042324 64 225 0.0 0.0 0.00 0.00 0.00 49 1009.0
20260504041824 64 180 0.0 0.0 0.00 0.00 0.00 48 1009.0
20260504041324 64 225 0.0 0.0 0.00 0.00 0.00 48 1009.0
20260504040824 64 225 0.0 0.0 0.00 0.00 0.00 48 1009.0
20260504040324 64 225 0.0 0.0 0.00 0.00 0.00 48 1009.0
20260504035822 65 225 0.0 0.0 0.00 0.00 0.00 48 1008.0
20260504035323 65 225 0.0 0.0 0.00 0.00 0.00 48 1009.0
20260504034824 65 202 0.0 0.0 0.00 0.00 0.00 48 1008.0
20260504034324 66 225 0.0 0.0 0.00 0.00 0.00 48 1008.0
20260504033824 66 225 0.0 0.0 0.00 0.00 0.00 48 1008.0
20260504033323 67 202 0.0 0.0 0.00 0.00 0.00 48 1008.0
20260504032324 68 225 0.0 0.0 0.00 0.00 0.00 46 1008.0
20260504031824 69 225 0.0 0.0 0.00 0.00 0.00 45 1008.0
20260504031323 70 225 0.0 0.0 0.00 0.00 0.00 44 1008.0
20260504030823 70 225 0.0 0.0 0.00 0.00 0.00 43 1008.0
20260504030323 71 225 0.0 0.0 0.00 0.00 0.00 43 1008.0
20260504025823 71 202 0.0 0.0 0.00 0.00 0.00 42 1008.0
20260504025322 72 202 0.0 0.0 0.00 0.00 0.00 41 1008.0
20260504024824 72 45 0.0 0.0 0.00 0.00 0.00 40 1008.0
20260504024324 73 45 0.0 0.0 0.00 0.00 0.00 39 1009.0
20260504023824 74 45 0.0 0.0 0.00 0.00 0.00 39 1009.0
20260504023323 74 45 0.0 0.0 0.00 0.00 0.00 38 1009.0
20260504022823 74 45 0.0 0.0 0.00 0.00 0.00 38 1009.0
20260504022323 75 45 0.0 0.0 0.00 0.00 0.00 38 1009.0
20260504021825 74 22 0.0 0.0 0.00 0.00 0.00 38 1009.0
20260504021323 74 45 0.0 0.0 0.00 0.00 0.00 37 1009.0
20260504020824 74 225 0.0 0.0 0.00 0.00 0.00 37 1009.0
20260504020324 74 225 0.0 0.0 0.00 0.00 0.00 38 1009.0
20260504015823 74 225 0.0 0.0 0.00 0.00 0.00 38 1009.0
20260504015324 75 225 0.0 0.0 0.00 0.00 0.00 38 1009.0
20260504014823 75 202 0.0 0.0 0.00 0.00 0.00 37 1009.0
20260504014323 75 225 0.0 0.0 0.00 0.00 0.00 37 1009.0
20260504013824 75 202 0.0 0.0 0.00 0.00 0.00 37 1009.0
20260504013324 76 202 0.0 0.0 0.00 0.00 0.00 37 1009.0
20260504012824 76 202 0.0 0.0 0.00 0.00 0.00 37 1009.0
20260504012324 76 202 0.0 0.0 0.00 0.00 0.00 37 1009.0
20260504011824 76 225 0.0 0.0 0.00 0.00 0.00 36 1009.0
20260504011324 76 180 0.0 0.0 0.00 0.00 0.00 36 1009.0
20260504010824 76 45 0.0 0.0 0.00 0.00 0.00 36 1009.0
20260504010323 77 338 0.0 0.0 0.00 0.00 0.00 36 1009.0
20260504005823 77 0 0.0 0.0 0.00 0.00 0.00 36 1010.0
20260504005323 77 225 0.0 0.0 0.00 0.00 0.00 36 1010.0
20260504004823 77 0 0.0 0.0 0.00 0.00 0.00 36 1010.0
20260504004323 77 338 0.0 0.0 0.00 0.00 0.00 35 1010.0
20260504003823 77 45 0.0 0.0 0.00 0.00 0.00 36 1010.0
20260504003324 77 45 0.0 0.0 0.00 0.00 0.00 36 1010.0
20260504002824 77 45 0.0 0.0 0.00 0.00 0.00 36 1010.0
20260504002324 77 0 0.0 0.0 0.00 0.00 0.00 36 1010.0
20260504001823 78 45 0.0 0.0 0.00 0.00 0.00 36 1010.0
20260504001324 78 0 0.0 0.0 0.00 0.00 0.00 36 1010.0
20260504000823 78 338 0.0 0.0 0.00 0.00 0.00 36 1010.0
20260504000323 78 45 0.0 0.0 0.00 0.00 0.00 37 1010.0
20260503235823 78 0 0.0 0.0 0.00 0.00 0.00 36 1010.0
20260503235323 78 45 0.0 0.0 0.00 0.00 0.00 36 1010.0
20260503234823 78 338 0.0 0.0 0.00 0.00 0.00 36 1010.0
20260503234323 78 0 0.0 0.0 0.00 0.00 0.00 37 1010.0
20260503233823 78 22 0.0 0.0 0.00 0.00 0.00 37 1010.0